Location: Melbourne
(37.8120°S, 144.9677°E)
Time: 09:34:37
(UTC+10:00)

ISS - Visible Passes

Search period start: 02 September 2014 00:00
Search period end: 12 September 2014 00:00
Orbit: 414 x 419 km, 51.6° (Epoch: 01 September)

Date Brightness Start Highest point End Pass type
(mag) Time Alt. Az. Time Alt. Az. Time Alt. Az.
02 Sep -1.4 04:53:03 23° NNE 04:53:03 23° NNE 04:54:30 10° NNE visible
04 Sep -0.9 19:51:54 10° NNW 19:52:43 16° NNW 19:52:43 16° NNW visible
05 Sep -2.0 19:03:54 10° N 19:06:39 23° NE 19:07:04 23° ENE visible
06 Sep -2.6 19:51:12 10° WNW 19:54:11 55° WSW 19:54:11 55° WSW visible
07 Sep -3.3 19:02:33 10° NW 19:05:55 74° NE 19:08:12 19° SE visible
07 Sep 0.2 20:40:36 10° WSW 20:41:07 12° WSW 20:41:07 12° WSW visible
08 Sep -1.3 19:51:16 10° W 19:54:08 25° SSW 19:54:58 22° S visible
09 Sep -1.9 19:02:07 10° WNW 19:05:19 38° SSW 19:08:32 10° SE visible
10 Sep -0.5 19:51:57 10° SW 19:53:49 14° SSW 19:55:06 12° S visible
11 Sep -0.8 19:02:22 10° WSW 19:04:51 19° SSW 19:07:20 10° SSE visible
